timestamp,wind_dir_avg,wind_spd_avg,wind_spd_max_dir,wind_spd_gust,battery_voltage,lat,long
2021-06-05 00:04:01+00:00,206.0,8.3,208.0,8.97,12.97,47.59359,-54.27349
2021-06-05 00:14:01+00:00,210.0,7.53,210.0,8.15,12.65,47.59359,-54.27349
2021-06-05 00:24:01+00:00,202.0,7.69,204.0,8.26,12.65,47.59359,-54.27349
2021-06-05 00:34:01+00:00,202.0,7.06,206.0,7.89,12.65,47.59359,-54.27349
2021-06-05 00:44:01+00:00,205.0,7.11,206.0,7.64,12.65,47.59359,-54.27349
2021-06-05 00:54:01+00:00,199.0,7.2,198.0,8.14,12.65,47.59359,-54.27349
2021-06-05 01:04:01+00:00,206.0,7.2,207.0,8.19,12.65,47.59359,-54.27349
2021-06-05 01:14:01+00:00,214.0,6.44,213.0,7.08,12.57,47.59359,-54.27349
2021-06-05 01:24:01+00:00,213.0,6.44,215.0,6.9,12.57,47.59359,-54.27349
2021-06-05 01:34:01+00:00,209.0,6.49,207.0,7.1,12.57,47.59359,-54.27349
2021-06-05 01:44:01+00:00,203.0,7.31,205.0,7.8,12.57,47.59359,-54.27349
2021-06-05 01:54:01+00:00,202.0,7.8,203.0,8.28,12.57,47.59359,-54.27349
2021-06-05 02:04:01+00:00,205.0,6.19,204.0,7.19,12.57,47.59359,-54.27349
2021-06-05 02:14:00+00:00,214.0,5.38,216.0,5.93,12.57,47.59359,-54.27349
2021-06-05 02:24:00+00:00,217.0,7.27,222.0,8.22,12.57,47.59359,-54.27349
2021-06-05 02:34:00+00:00,216.0,6.44,216.0,7.86,12.57,47.59359,-54.27349
2021-06-05 02:44:00+00:00,216.0,5.87,217.0,6.32,12.57,47.59359,-54.27349
2021-06-05 02:54:00+00:00,220.0,6.74,224.0,7.41,12.57,47.59359,-54.27349
2021-06-05 03:04:00+00:00,222.0,6.05,225.0,7.01,12.57,47.59359,-54.27349
2021-06-05 03:14:01+00:00,214.0,5.78,217.0,6.86,12.57,47.59359,-54.27349
2021-06-05 03:24:01+00:00,214.0,5.19,209.0,5.79,12.57,47.59359,-54.27349
2021-06-05 03:34:01+00:00,229.0,4.34,227.0,5.77,12.57,47.59359,-54.27349
2021-06-05 03:44:01+00:00,205.0,4.61,209.0,4.98,12.57,47.59359,-54.27349
2021-06-05 03:54:01+00:00,161.0,4.33,162.0,4.77,12.57,47.59359,-54.27349
2021-06-05 04:04:01+00:00,178.0,4.46,180.0,5.25,12.57,47.59359,-54.27349
2021-06-05 04:14:00+00:00,198.0,5.56,200.0,6.13,12.49,47.59359,-54.27349
2021-06-05 04:24:00+00:00,206.0,5.41,207.0,5.84,12.49,47.59359,-54.27349
2021-06-05 04:34:00+00:00,211.0,6.71,210.0,7.29,12.49,47.59359,-54.27349
2021-06-05 04:44:00+00:00,216.0,6.59,217.0,7.01,12.49,47.59359,-54.27349
2021-06-05 04:54:00+00:00,211.0,7.02,211.0,7.94,12.49,47.59359,-54.27349
2021-06-05 05:04:00+00:00,210.0,7.71,211.0,8.29,12.49,47.59359,-54.27349
2021-06-05 05:14:00+00:00,211.0,7.09,213.0,7.96,12.49,47.59359,-54.27349
2021-06-05 05:24:00+00:00,207.0,6.25,208.0,6.95,12.49,47.59359,-54.27349
2021-06-05 05:34:00+00:00,196.0,6.4,196.0,7.2,12.49,47.59359,-54.27349
2021-06-05 05:44:00+00:00,204.0,6.16,205.0,6.98,12.49,47.59359,-54.27349
2021-06-05 05:54:00+00:00,204.0,6.84,204.0,7.59,12.49,47.59359,-54.27349
2021-06-05 06:04:00+00:00,204.0,7.3,209.0,7.99,12.49,47.59359,-54.27349
2021-06-05 06:14:00+00:00,210.0,7.8,209.0,8.39,12.41,47.59359,-54.27349
2021-06-05 06:24:00+00:00,208.0,8.76,208.0,9.43,12.41,47.59359,-54.27349
2021-06-05 06:34:00+00:00,206.0,6.93,207.0,7.66,12.41,47.59359,-54.27349
2021-06-05 06:44:00+00:00,203.0,6.94,202.0,7.51,12.41,47.59359,-54.27349
2021-06-05 06:54:00+00:00,203.0,6.92,204.0,7.64,12.41,47.59359,-54.27349
2021-06-05 07:04:00+00:00,201.0,6.87,202.0,7.6,12.41,47.59359,-54.27349
2021-06-05 07:14:01+00:00,205.0,6.16,204.0,6.91,12.41,47.59359,-54.27349
2021-06-05 07:24:01+00:00,211.0,6.25,215.0,6.81,12.41,47.59359,-54.27349
2021-06-05 07:34:01+00:00,212.0,5.71,213.0,6.07,12.41,47.59359,-54.27349
2021-06-05 07:44:01+00:00,211.0,5.86,212.0,6.27,12.41,47.59359,-54.27349
2021-06-05 07:54:01+00:00,211.0,6.17,212.0,6.55,12.41,47.59359,-54.27349
2021-06-05 08:04:01+00:00,209.0,6.43,205.0,7.22,12.41,47.59359,-54.27349
2021-06-05 08:14:01+00:00,214.0,6.47,214.0,7.27,12.41,47.59359,-54.27349
2021-06-05 08:24:01+00:00,216.0,5.91,217.0,6.31,12.41,47.59359,-54.27349
2021-06-05 08:34:01+00:00,220.0,6.97,220.0,7.38,12.41,47.59359,-54.27349
2021-06-05 08:44:01+00:00,220.0,6.26,223.0,6.76,12.41,47.59359,-54.27349
2021-06-05 08:54:01+00:00,216.0,6.74,217.0,7.41,12.41,47.59359,-54.27349
2021-06-05 09:04:01+00:00,216.0,6.71,218.0,7.42,12.41,47.59359,-54.27349
2021-06-05 09:14:00+00:00,212.0,7.22,213.0,7.79,12.65,47.59359,-54.27349
2021-06-05 09:24:00+00:00,212.0,6.7,212.0,7.11,12.65,47.59359,-54.27349
2021-06-05 09:34:00+00:00,212.0,7.19,210.0,7.75,12.65,47.59359,-54.27349
2021-06-05 09:44:00+00:00,214.0,7.25,213.0,7.88,12.65,47.59359,-54.27349
2021-06-05 09:54:00+00:00,216.0,7.05,218.0,7.76,12.65,47.59359,-54.27349
2021-06-05 10:04:00+00:00,206.0,4.83,205.0,5.51,12.65,47.59359,-54.27349
2021-06-05 10:14:01+00:00,199.0,4.95,202.0,5.54,13.21,47.59359,-54.27349
2021-06-05 10:24:01+00:00,195.0,4.41,204.0,4.86,13.21,47.59359,-54.27349
2021-06-05 10:34:01+00:00,205.0,4.52,210.0,4.97,13.21,47.59359,-54.27349
2021-06-05 10:44:01+00:00,201.0,3.86,204.0,4.33,13.21,47.59359,-54.27349
2021-06-05 10:54:01+00:00,194.0,4.43,200.0,4.79,13.21,47.59359,-54.27349
2021-06-05 11:04:01+00:00,191.0,3.94,196.0,4.54,13.21,47.59359,-54.27349
2021-06-05 11:14:01+00:00,194.0,4.52,202.0,5.12,13.44,47.59359,-54.27349
2021-06-05 11:24:01+00:00,190.0,5.11,194.0,5.6,13.44,47.59359,-54.27349
2021-06-05 11:34:01+00:00,192.0,3.43,192.0,3.78,13.44,47.59359,-54.27349
2021-06-05 11:44:01+00:00,207.0,4.21,218.0,4.63,13.44,47.59359,-54.27349
2021-06-05 11:54:01+00:00,196.0,3.32,196.0,3.53,13.44,47.59359,-54.27349
2021-06-05 12:04:01+00:00,195.0,3.64,195.0,3.88,13.44,47.59359,-54.27349
2021-06-05 12:14:01+00:00,194.0,3.51,196.0,3.78,13.68,47.59359,-54.27349
2021-06-05 12:24:01+00:00,197.0,3.68,196.0,3.97,13.68,47.59359,-54.27349
2021-06-05 12:34:01+00:00,196.0,3.45,200.0,3.76,13.68,47.59359,-54.27349
2021-06-05 12:44:01+00:00,204.0,2.8,202.0,2.98,13.68,47.59359,-54.27349
2021-06-05 12:54:01+00:00,189.0,2.95,192.0,3.19,13.68,47.59359,-54.27349
2021-06-05 13:04:01+00:00,200.0,3.47,196.0,3.95,13.68,47.59359,-54.27349
2021-06-05 13:14:01+00:00,186.0,3.13,185.0,3.45,13.84,47.59359,-54.27349
2021-06-05 13:24:01+00:00,203.0,5.28,205.0,5.48,13.84,47.59359,-54.27349
2021-06-05 13:34:01+00:00,205.0,4.69,206.0,4.95,13.84,47.59359,-54.27349
2021-06-05 13:44:01+00:00,196.0,4.82,198.0,5.14,13.84,47.59359,-54.27349
2021-06-05 13:54:01+00:00,199.0,5.72,198.0,6.26,13.84,47.59359,-54.27349
2021-06-05 14:04:01+00:00,202.0,5.81,200.0,6.57,13.84,47.59359,-54.27349
2021-06-05 14:14:01+00:00,210.0,5.92,209.0,6.33,13.84,47.59359,-54.27349
2021-06-05 14:24:01+00:00,199.0,4.9,200.0,5.25,13.84,47.59359,-54.27349
2021-06-05 14:34:01+00:00,208.0,4.69,206.0,5.18,13.84,47.59359,-54.27349
2021-06-05 14:44:01+00:00,205.0,3.73,211.0,4.16,13.84,47.59359,-54.27349
2021-06-05 14:54:01+00:00,205.0,5.12,207.0,5.46,13.84,47.59359,-54.27349
2021-06-05 15:04:01+00:00,203.0,4.51,202.0,4.79,13.84,47.59359,-54.27349
2021-06-05 15:14:01+00:00,215.0,4.09,215.0,4.55,13.68,47.59359,-54.27349
2021-06-05 15:24:01+00:00,216.0,3.61,221.0,4.34,13.68,47.59359,-54.27349
2021-06-05 15:34:01+00:00,206.0,3.11,208.0,3.32,13.68,47.59359,-54.27349
2021-06-05 15:44:01+00:00,209.0,2.89,208.0,3.14,13.68,47.59359,-54.27349
2021-06-05 15:54:01+00:00,197.0,1.97,196.0,2.27,13.68,47.59359,-54.27349
2021-06-05 16:04:01+00:00,184.0,2.12,186.0,2.19,13.68,47.59359,-54.27349
2021-06-05 16:14:01+00:00,180.0,2.55,184.0,2.68,13.84,47.59359,-54.27349
2021-06-05 16:24:01+00:00,150.0,1.41,145.0,1.67,13.84,47.59359,-54.27349
2021-06-05 16:34:01+00:00,162.0,1.5,164.0,1.58,13.84,47.59359,-54.27349
2021-06-05 16:44:01+00:00,185.0,1.63,185.0,1.69,13.84,47.59359,-54.27349
2021-06-05 16:54:01+00:00,171.0,1.32,181.0,1.43,13.84,47.59359,-54.27349
2021-06-05 17:04:01+00:00,249.0,0.36,245.0,0.51,13.84,47.59359,-54.27349
2021-06-05 17:14:01+00:00,254.0,2.1,251.0,2.27,13.92,47.59359,-54.27349
2021-06-05 17:24:01+00:00,239.0,2.76,237.0,2.92,13.92,47.59359,-54.27349
2021-06-05 17:34:01+00:00,149.0,0.45,164.0,0.63,13.92,47.59359,-54.27349
2021-06-05 17:44:01+00:00,36.0,1.68,35.0,2.24,13.92,47.59359,-54.27349
2021-06-05 17:54:01+00:00,213.0,0.77,220.0,1.15,13.92,47.59359,-54.27349
2021-06-05 18:04:01+00:00,202.0,1.72,207.0,2.41,13.92,47.59359,-54.27349
2021-06-05 18:14:01+00:00,200.0,5.94,197.0,6.94,13.84,47.59359,-54.27349
2021-06-05 18:24:01+00:00,205.0,6.75,208.0,8.04,13.84,47.59359,-54.27349
2021-06-05 18:34:01+00:00,212.0,7.24,204.0,8.03,13.84,47.59359,-54.27349
2021-06-05 18:44:01+00:00,210.0,7.45,211.0,8.42,13.84,47.59359,-54.27349
2021-06-05 18:54:01+00:00,218.0,8.35,220.0,9.24,13.84,47.59359,-54.27349
2021-06-05 19:04:01+00:00,224.0,6.13,218.0,6.87,13.84,47.59359,-54.27349
2021-06-05 19:14:01+00:00,219.0,7.21,216.0,8.03,13.68,47.59359,-54.27349
2021-06-05 19:24:01+00:00,222.0,5.62,222.0,6.57,13.68,47.59359,-54.27349
2021-06-05 19:34:01+00:00,220.0,5.44,218.0,6.17,13.68,47.59359,-54.27349
2021-06-05 19:44:01+00:00,221.0,5.47,218.0,6.09,13.68,47.59359,-54.27349
2021-06-05 19:54:01+00:00,226.0,5.53,229.0,6.39,13.68,47.59359,-54.27349
2021-06-05 20:04:01+00:00,221.0,6.92,224.0,8.16,13.68,47.59359,-54.27349
2021-06-05 20:14:01+00:00,219.0,5.88,212.0,6.94,13.84,47.59359,-54.27349
2021-06-05 20:24:01+00:00,214.0,4.68,213.0,6.09,13.84,47.59359,-54.27349
2021-06-05 20:34:01+00:00,197.0,6.12,201.0,7.43,13.84,47.59359,-54.27349
2021-06-05 20:44:01+00:00,197.0,5.82,205.0,6.85,13.84,47.59359,-54.27349
2021-06-05 20:54:01+00:00,217.0,6.88,219.0,7.54,13.84,47.59359,-54.27349
2021-06-05 21:04:01+00:00,223.0,6.77,229.0,7.92,13.84,47.59359,-54.27349
2021-06-05 21:14:01+00:00,230.0,8.54,232.0,9.97,13.53,47.59359,-54.27349
2021-06-05 21:24:01+00:00,230.0,7.5,228.0,8.96,13.53,47.59359,-54.27349
2021-06-05 21:34:01+00:00,230.0,8.3,234.0,9.51,13.53,47.59359,-54.27349
2021-06-05 21:44:01+00:00,226.0,6.52,229.0,7.22,13.53,47.59359,-54.27349
2021-06-05 21:54:01+00:00,221.0,5.23,217.0,5.84,13.53,47.59359,-54.27349
2021-06-05 22:04:01+00:00,222.0,4.76,224.0,5.35,13.53,47.59359,-54.27349
2021-06-05 22:14:01+00:00,224.0,5.56,221.0,6.32,13.44,47.59359,-54.27349
2021-06-05 22:24:01+00:00,230.0,5.75,237.0,6.7,13.44,47.59359,-54.27349
2021-06-05 22:34:01+00:00,225.0,4.7,224.0,5.71,13.44,47.59359,-54.27349
2021-06-05 22:44:01+00:00,223.0,5.34,219.0,5.94,13.44,47.59359,-54.27349
2021-06-05 22:54:01+00:00,225.0,5.5,225.0,6.41,13.44,47.59359,-54.27349
2021-06-05 23:04:01+00:00,220.0,5.24,226.0,5.88,13.44,47.59359,-54.27349
2021-06-05 23:14:01+00:00,220.0,5.93,221.0,6.51,12.89,47.59359,-54.27349
2021-06-05 23:24:01+00:00,227.0,6.51,226.0,7.46,12.89,47.59359,-54.27349
2021-06-05 23:34:01+00:00,228.0,5.75,225.0,6.3,12.89,47.59359,-54.27349
2021-06-05 23:44:01+00:00,216.0,6.12,218.0,6.54,12.89,47.59359,-54.27349
2021-06-05 23:54:01+00:00,216.0,6.1,216.0,6.65,12.89,47.59359,-54.27349
